DW2819 Weather Reports


Display with metric or nautical units.
time (UTC)temp
F
wind
direction
speed
MPH
gust
MPH
rain 1hr
in
rain 24hr
in
rain mn
in
humidity
%
barometer
mb
20260507103609 57 44 3.0 6.0 0.00 0.00 0.00 26 1015.1
20260507102603 58 90 3.0 6.0 0.00 0.00 0.00 25 1015.3
20260507102101 58 14 2.0 5.0 0.00 0.00 0.00 25 1015.1
20260507101102 57 58 4.0 7.0 0.00 0.00 0.00 26 1015.1
20260507100601 57 23 2.0 10.0 0.00 0.00 0.00 26 1015.1
20260507100105 58 72 2.0 10.0 0.00 0.00 0.00 26 1015.2
20260507095559 58 114 5.0 9.0 0.00 0.00 0.00 26 1015.0
20260507095055 58 79 4.0 7.0 0.00 0.00 0.00 26 1015.0
20260507094547 57 68 3.0 5.0 0.00 0.00 0.00 26 1015.0
20260507094038 56 192 1.0 4.0 0.00 0.00 0.00 27 1015.0
20260507093535 56 164 2.0 5.0 0.00 0.00 0.00 28 1015.0
20260507092530 56 247 2.0 4.0 0.00 0.00 0.00 27 1015.2
20260507092033 56 141 2.0 5.0 0.00 0.00 0.00 26 1015.2
20260507091524 57 86 2.0 5.0 0.00 0.00 0.00 27 1015.2
20260507091023 57 14 3.0 5.0 0.00 0.00 0.00 28 1015.1
20260507090014 57 0 4.0 7.0 0.00 0.00 0.00 27 1015.2
20260507085511 56 149 3.0 7.0 0.00 0.00 0.00 27 1015.3
20260507085011 56 110 3.0 7.0 0.00 0.00 0.00 29 1015.3
20260507084512 56 157 1.0 6.0 0.00 0.00 0.00 27 1015.2
20260507084011 56 127 3.0 6.0 0.00 0.00 0.00 30 1015.3
20260507083505 56 80 4.0 6.0 0.00 0.00 0.00 27 1015.3
20260507083007 55 48 2.0 5.0 0.00 0.00 0.00 28 1015.3
20260507082510 54 313 2.0 6.0 0.00 0.00 0.00 29 1015.3
20260507082006 56 107 4.0 6.0 0.00 0.00 0.00 28 1015.5
20260507081507 56 87 2.0 6.0 0.00 0.00 0.00 29 1015.5
20260507081005 55 82 2.0 4.0 0.00 0.00 0.00 28 1015.5
20260507080510 54 83 2.0 4.0 0.00 0.00 0.00 29 1015.5
20260507080011 54 76 2.0 9.0 0.00 0.00 0.00 27 1015.4
20260507075506 55 71 4.0 9.0 0.00 0.00 0.00 28 1015.5
20260507075005 54 83 3.0 6.0 0.00 0.00 0.00 27 1015.5
20260507074508 54 85 2.0 5.0 0.00 0.00 0.00 31 1015.5
20260507074009 53 73 2.0 5.0 0.00 0.00 0.00 31 1015.5
20260507073007 53 131 2.0 6.0 0.00 0.00 0.00 31 1015.5
20260507072006 53 120 2.0 4.0 0.00 0.00 0.00 33 1015.6
20260507071508 53 28 2.0 4.0 0.00 0.00 0.00 31 1015.6
20260507071006 53 45 3.0 4.0 0.00 0.00 0.00 33 1015.6
20260507070511 53 68 2.0 4.0 0.00 0.00 0.00 33 1015.6
20260507070013 52 0 2.0 4.0 0.00 0.00 0.00 33 1015.6
20260507065507 53 93 2.0 5.0 0.00 0.00 0.00 33 1015.5
20260507065010 52 125 3.0 5.0 0.00 0.00 0.00 33 1015.5
20260507064508 52 124 2.0 5.0 0.00 0.00 0.00 33 1015.5
20260507064005 52 14 2.0 4.0 0.00 0.00 0.00 34 1015.6
20260507063509 51 34 2.0 4.0 0.00 0.00 0.00 34 1015.5
20260507063007 51 58 1.0 5.0 0.00 0.00 0.00 34 1015.6
20260507062508 50 58 2.0 5.0 0.00 0.00 0.00 33 1015.6
20260507062013 50 39 2.0 5.0 0.00 0.00 0.00 36 1015.6
20260507061503 49 99 2.0 5.0 0.00 0.00 0.00 36 1015.5
20260507061008 49 25 3.0 6.0 0.00 0.00 0.00 37 1015.5
20260507060504 48 32 3.0 6.0 0.00 0.00 0.00 38 1015.5
20260507055006 46 41 2.0 5.0 0.00 0.00 0.00 42 1015.5
20260507054505 46 324 2.0 5.0 0.00 0.00 0.00 43 1015.5
20260507054007 45 49 3.0 5.0 0.00 0.00 0.00 43 1015.4
20260507053508 45 73 2.0 5.0 0.00 0.00 0.00 45 1015.5
20260507053005 44 307 2.0 5.0 0.00 0.00 0.00 45 1015.5
20260507052511 44 37 1.0 3.0 0.00 0.00 0.00 46 1015.4
20260507051506 44 72 2.0 3.0 0.00 0.00 0.00 46 1015.5
20260507051007 44 93 1.0 2.0 0.00 0.00 0.00 47 1015.4
20260507050510 44 13 1.0 2.0 0.00 0.00 0.00 47 1015.5
20260507050018 43 56 1.0 3.0 0.00 0.00 0.00 47 1015.4
20260507045506 43 55 1.0 3.0 0.00 0.00 0.00 47 1015.4
20260507045006 43 0 1.0 3.0 0.00 0.00 0.00 48 1015.4
20260507044514 42 73 2.0 3.0 0.00 0.00 0.00 47 1015.3
20260507043507 42 78 1.0 2.0 0.00 0.00 0.00 49 1015.3
20260507043016 41 82 1.0 2.0 0.00 0.00 0.00 49 1015.3
20260507042510 41 103 1.0 2.0 0.00 0.00 0.00 49 1015.3
20260507042012 40 63 1.0 5.0 0.00 0.00 0.00 50 1015.4
20260507041509 40 62 2.0 5.0 0.00 0.00 0.00 53 1015.3
20260507040505 40 78 1.0 2.0 0.00 0.00 0.00 50 1015.3
20260507040014 39 92 2.0 3.0 0.00 0.00 0.00 51 1015.4
20260507035507 39 83 1.0 3.0 0.00 0.00 0.00 51 1015.4
20260507035007 38 69 1.0 3.0 0.00 0.00 0.00 52 1015.3
20260507034509 38 59 2.0 2.0 0.00 0.00 0.00 52 1015.3
20260507034008 38 34 0.0 3.0 0.00 0.00 0.00 53 1015.3
20260507033509 38 83 1.0 3.0 0.00 0.00 0.00 52 1015.4
20260507033007 37 41 0.0 2.0 0.00 0.00 0.00 53 1015.2
20260507032507 37 20 0.0 2.0 0.00 0.00 0.00 54 1015.3
20260507032008 37 147 0.0 1.0 0.00 0.00 0.00 55 1015.3
20260507031008 37 152 0.0 1.0 0.00 0.00 0.00 55 1015.1
20260507030502 37 151 0.0 1.0 0.00 0.00 0.00 53 1015.1
20260507030010 36 104 0.0 2.0 0.00 0.00 0.00 53 1015.0
20260507025001 36 59 0.0 2.0 0.00 0.00 0.00 53 1014.9
20260507024501 36 69 0.0 2.0 0.00 0.00 0.00 56 1015.0
20260507023500 36 78 0.0 2.0 0.00 0.00 0.00 58 1015.0
20260507022930 36 78 0.0 2.0 0.00 0.00 0.00 56 1015.0
20260507022432 36 65 0.0 2.0 0.00 0.00 0.00 56 1015.0
20260507021924 37 73 0.0 1.0 0.00 0.00 0.00 53 1015.1
20260507021425 37 59 0.0 3.0 0.00 0.00 0.00 54 1015.0
20260507020918 37 51 1.0 3.0 0.00 0.00 0.00 52 1015.1
20260507020420 37 65 0.0 4.0 0.00 0.00 0.00 52 1015.1
20260507015922 37 54 1.0 4.0 0.00 0.00 0.00 50 1015.1
20260507015407 37 76 0.0 3.0 0.00 0.00 0.00 49 1015.0
20260507014414 37 63 0.0 3.0 0.00 0.00 0.00 51 1014.9
20260507013908 37 79 0.0 3.0 0.00 0.00 0.00 50 1014.9
20260507013408 37 65 0.0 2.0 0.00 0.00 0.00 49 1014.9
20260507012905 37 61 1.0 2.0 0.00 0.00 0.00 49 1014.9
20260507012404 37 71 0.0 2.0 0.00 0.00 0.00 51 1014.9
20260507011905 37 68 1.0 2.0 0.00 0.00 0.00 50 1014.9
20260507011402 37 82 0.0 2.0 0.00 0.00 0.00 51 1015.0
20260507005904 37 314 0.0 2.0 0.00 0.00 0.00 51 1014.9
20260507003902 37 76 0.0 2.0 0.00 0.00 0.00 52 1014.8
20260507003401 37 92 0.0 2.0 0.00 0.00 0.00 52 1014.8
20260507002902 37 66 0.0 2.0 0.00 0.00 0.00 52 1014.7
20260507002404 37 123 0.0 3.0 0.00 0.00 0.00 51 1014.8
20260507001904 37 83 0.0 3.0 0.00 0.00 0.00 52 1014.8
20260507001404 37 312 0.0 1.0 0.00 0.00 0.00 53 1014.8
20260507000904 37 337 0.0 1.0 0.00 0.00 0.00 52 1014.7
20260507000401 37 337 0.0 0.0 0.00 0.00 0.00 53 1014.8
20260506235859 37 337 0.0 0.0 0.00 0.00 0.00 55 1014.7
20260506235357 37 337 0.0 0.0 0.00 0.00 0.00 56 1014.6
20260506234900 38 337 0.0 0.0 0.00 0.00 0.00 52 1014.8
20260506234333 38 337 0.0 0.0 0.00 0.00 0.00 49 1014.8
20260506233833 38 337 0.0 1.0 0.00 0.00 0.00 49 1014.8
20260506233333 38 337 0.0 1.0 0.00 0.00 0.00 50 1014.8
20260506232830 38 337 0.0 1.0 0.00 0.00 0.00 49 1014.8
20260506232332 38 337 0.0 1.0 0.00 0.00 0.00 48 1014.7
20260506231830 38 334 0.0 1.0 0.00 0.00 0.00 48 1014.6
20260506231332 39 334 0.0 1.0 0.00 0.00 0.00 49 1014.7
20260506230832 39 334 0.0 2.0 0.00 0.00 0.00 48 1014.7
20260506230319 39 327 0.0 1.0 0.00 0.00 0.00 47 1014.7
20260506225244 39 323 0.0 2.0 0.00 0.00 0.00 46 1014.7
20260506224745 39 4 0.0 2.0 0.00 0.00 0.00 47 1014.7
20260506223732 39 0 0.0 1.0 0.00 0.00 0.00 45 1014.7
20260506223233 39 0 0.0 1.0 0.00 0.00 0.00 45 1014.7
20260506222736 40 0 0.0 1.0 0.00 0.00 0.00 46 1014.7
20260506222233 40 0 0.0 1.0 0.00 0.00 0.00 46 1014.6
20260506221729 40 0 0.0 2.0 0.00 0.00 0.00 45 1014.6
20260506221232 40 13 1.0 2.0 0.00 0.00 0.00 44 1014.6
20260506220731 40 343 1.0 2.0 0.00 0.00 0.00 44 1014.5
20260506215709 40 351 1.0 3.0 0.00 0.00 0.00 45 1014.5
20260506215205 40 350 1.0 3.0 0.00 0.00 0.00 45 1014.4
20260506214208 40 347 1.0 2.0 0.00 0.00 0.00 45 1014.4
20260506213205 40 340 1.0 2.0 0.00 0.00 0.00 45 1014.4
20260506212704 40 340 1.0 3.0 0.00 0.00 0.00 44 1014.4
20260506212210 40 343 1.0 3.0 0.00 0.00 0.00 45 1014.3
20260506211704 40 336 1.0 3.0 0.00 0.00 0.00 45 1014.4
20260506211203 40 343 1.0 2.0 0.00 0.00 0.00 46 1014.3
20260506210704 40 347 0.0 3.0 0.00 0.00 0.00 47 1014.3
20260506210207 40 341 1.0 3.0 0.00 0.00 0.00 46 1014.3
20260506205707 40 329 1.0 2.0 0.00 0.00 0.00 47 1014.2
20260506205206 40 314 1.0 1.0 0.00 0.00 0.00 48 1014.2
20260506204706 40 314 1.0 1.0 0.00 0.00 0.00 49 1014.3
20260506204209 40 310 0.0 1.0 0.00 0.00 0.00 47 1014.3
20260506203709 40 302 1.0 1.0 0.00 0.00 0.00 48 1014.2
20260506202711 40 302 1.0 2.0 0.00 0.00 0.00 47 1014.2
20260506202211 40 302 1.0 2.0 0.00 0.00 0.00 47 1014.2
20260506201713 39 283 0.0 2.0 0.00 0.00 0.00 48 1014.2
20260506201219 39 247 1.0 1.0 0.00 0.00 0.00 52 1014.1
20260506200206 40 176 0.0 0.0 0.00 0.00 0.00 54 1014.2
20260506195704 40 176 0.0 0.0 0.00 0.00 0.00 54 1014.2
20260506195203 40 176 0.0 0.0 0.00 0.00 0.00 56 1014.1
20260506194707 40 176 0.0 0.0 0.00 0.00 0.00 54 1014.0
20260506194205 41 176 0.0 0.0 0.00 0.00 0.00 53 1014.1
20260506193712 41 176 0.0 0.0 0.00 0.00 0.00 56 1014.0
20260506193205 41 176 0.0 0.0 0.00 0.00 0.00 55 1013.9
20260506192706 41 176 0.0 0.0 0.00 0.00 0.00 55 1013.9
20260506190648 43 176 0.0 0.0 0.00 0.00 0.00 55 1013.9
20260506190146 43 176 0.0 0.0 0.00 0.00 0.00 56 1013.9
20260506185641 44 176 0.0 0.0 0.00 0.00 0.00 56 1013.9
20260506184642 44 176 0.0 0.0 0.00 0.00 0.00 51 1013.8
20260506183637 44 176 0.0 0.0 0.00 0.00 0.00 58 1013.8
20260506183137 44 176 0.0 0.0 0.00 0.00 0.00 59 1013.8
20260506182632 45 176 0.0 0.0 0.00 0.00 0.00 60 1013.8
20260506182129 45 176 0.0 0.0 0.00 0.00 0.00 61 1013.8
20260506181629 45 176 0.0 0.0 0.00 0.00 0.00 60 1013.7
20260506181120 45 176 0.0 0.0 0.00 0.00 0.00 63 1013.7
20260506180620 46 176 0.0 1.0 0.00 0.00 0.00 61 1013.7
20260506180122 46 176 0.0 1.0 0.00 0.00 0.00 62 1013.7
20260506175615 46 175 0.0 1.0 0.00 0.00 0.00 59 1013.8
20260506175113 47 164 0.0 2.0 0.00 0.00 0.00 59 1013.7
20260506174612 47 164 1.0 2.0 0.00 0.00 0.00 59 1013.6
20260506173610 47 116 0.0 1.0 0.00 0.00 0.00 59 1013.7
20260506173110 47 133 0.0 3.0 0.00 0.00 0.00 58 1013.7
20260506172606 47 118 0.0 3.0 0.00 0.00 0.00 57 1013.6
20260506172108 48 148 1.0 3.0 0.00 0.00 0.00 57 1013.6
20260506171606 48 148 0.0 3.0 0.00 0.00 0.00 56 1013.5
20260506171107 48 197 1.0 3.0 0.00 0.00 0.00 55 1013.5
20260506170601 48 345 1.0 2.0 0.00 0.00 0.00 54 1013.5
20260506170057 48 200 0.0 2.0 0.00 0.00 0.00 55 1013.4
20260506165555 49 94 0.0 3.0 0.00 0.00 0.00 56 1013.3
20260506165055 49 199 0.0 3.0 0.00 0.00 0.00 55 1013.3
20260506164553 49 127 0.0 3.0 0.00 0.00 0.00 55 1013.3
20260506164047 49 113 0.0 3.0 0.00 0.00 0.00 54 1013.3
20260506163549 49 168 1.0 3.0 0.00 0.00 0.00 52 1013.2
20260506163043 49 97 1.0 4.0 0.00 0.00 0.00 51 1013.3
20260506162540 50 135 1.0 4.0 0.00 0.00 0.00 54 1013.3
20260506162039 50 128 1.0 3.0 0.00 0.00 0.00 50 1013.3
20260506161535 50 61 1.0 3.0 0.00 0.00 0.00 52 1013.3
20260506161034 50 140 2.0 3.0 0.00 0.00 0.00 49 1013.2
20260506160532 50 217 1.0 3.0 0.00 0.00 0.00 54 1013.3
20260506160035 50 320 1.0 3.0 0.00 0.00 0.00 54 1013.3
20260506155533 50 224 0.0 4.0 0.00 0.00 0.00 54 1013.3
20260506155029 50 148 2.0 4.0 0.00 0.00 0.00 51 1013.3
20260506154529 50 192 0.0 4.0 0.00 0.00 0.00 53 1013.4
20260506154030 51 223 2.0 4.0 0.00 0.00 0.00 50 1013.3
20260506153529 51 152 1.0 3.0 0.00 0.00 0.00 52 1013.4
20260506153029 51 142 1.0 6.0 0.00 0.00 0.00 50 1013.3
20260506152532 51 135 1.0 6.0 0.00 0.00 0.00 49 1013.3
20260506152018 51 133 1.0 4.0 0.00 0.00 0.00 48 1013.3
20260506151518 51 157 2.0 5.0 0.00 0.00 0.00 47 1013.3
20260506150508 51 147 3.0 6.0 0.00 0.00 0.00 45 1013.4
20260506150016 51 179 1.0 3.0 0.00 0.00 0.00 43 1013.3
20260506145510 51 93 1.0 2.0 0.00 0.00 0.00 45 1013.4
20260506145008 51 254 0.0 2.0 0.00 0.00 0.00 47 1013.5
20260506144504 51 78 1.0 3.0 0.00 0.00 0.00 49 1013.4
20260506144003 51 155 1.0 3.0 0.00 0.00 0.00 49 1013.5
20260506143502 51 206 1.0 2.0 0.00 0.00 0.00 48 1013.4
20260506143004 51 169 1.0 4.0 0.00 0.00 0.00 47 1013.5
20260506142507 51 131 2.0 4.0 0.00 0.00 0.00 49 1013.4
20260506141506 51 118 1.0 5.0 0.00 0.00 0.00 46 1013.4
20260506141000 51 188 2.0 5.0 0.00 0.00 0.00 48 1013.3
20260506140457 51 39 1.0 3.0 0.00 0.00 0.00 45 1013.4
20260506135957 51 116 1.0 2.0 0.00 0.00 0.00 45 1013.4
20260506135458 51 131 1.0 3.0 0.00 0.00 0.00 45 1013.4
20260506134932 51 317 1.0 3.0 0.00 0.00 0.00 46 1013.4
20260506134437 51 186 1.0 2.0 0.00 0.00 0.00 46 1013.4
20260506133936 51 171 0.0 2.0 0.00 0.00 0.00 43 1013.5
20260506133436 51 264 0.0 1.0 0.00 0.00 0.00 39 1013.6
20260506132929 51 269 0.0 3.0 0.00 0.00 0.00 37 1013.5
20260506132435 51 7 2.0 3.0 0.00 0.00 0.00 36 1013.4
20260506131928 51 197 0.0 2.0 0.00 0.00 0.00 35 1013.4
20260506131409 52 310 1.0 4.0 0.00 0.00 0.00 35 1013.3
20260506130907 52 207 2.0 4.0 0.00 0.00 0.00 33 1013.2
20260506130405 51 172 1.0 6.0 0.00 0.00 0.00 33 1013.3
20260506125903 51 293 1.0 6.0 0.00 0.00 0.00 32 1013.2
20260506125408 51 319 2.0 6.0 0.00 0.00 0.00 32 1013.2
20260506124901 52 341 3.0 6.0 0.00 0.00 0.00 32 1013.3
20260506123902 52 347 1.0 4.0 0.00 0.00 0.00 32 1013.3
20260506122910 53 283 2.0 5.0 0.00 0.00 0.00 31 1013.3
20260506122413 53 326 2.0 5.0 0.00 0.00 0.00 30 1013.2
20260506121904 53 227 2.0 5.0 0.00 0.00 0.00 32 1013.2
20260506120907 52 288 2.0 4.0 0.00 0.00 0.00 33 1013.3
20260506120408 52 285 2.0 4.0 0.00 0.00 0.00 32 1013.3
20260506115904 52 333 3.0 5.0 0.00 0.00 0.00 31 1013.3
20260506115408 53 255 2.0 6.0 0.00 0.00 0.00 32 1013.2
20260506114906 53 324 2.0 6.0 0.00 0.00 0.00 31 1013.3
20260506114405 53 199 3.0 5.0 0.00 0.00 0.00 31 1013.3
20260506113404 52 313 1.0 3.0 0.00 0.00 0.00 33 1013.3
20260506112903 52 319 1.0 2.0 0.00 0.00 0.00 35 1013.2
20260506112404 51 90 1.0 2.0 0.00 0.00 0.00 35 1013.3
20260506111902 50 340 0.0 3.0 0.00 0.00 0.00 37 1013.4
20260506111408 50 223 0.0 3.0 0.00 0.00 0.00 36 1013.4
20260506110907 51 292 1.0 3.0 0.00 0.00 0.00 34 1013.5
20260506110406 51 248 1.0 3.0 0.00 0.00 0.00 33 1013.4
20260506105905 51 314 1.0 9.0 0.00 0.00 0.00 32 1013.3
20260506104906 52 353 4.0 6.0 0.00 0.00 0.00 30 1013.3
20260506103905 51 350 1.0 11.0 0.00 0.00 0.00 31 1013.3